User: anonymous   Login
Location: Unspecified
(49.5170°N, 0.0000°E)
Time: 16:21:29
(UTC+00:00)
Language:

NOAA 16 DEB - Orbit

View from above orbital plane
View from above orbital plane
View from above satellite
View from above satellite

Ground track
Ground track

The orbit is defined by the following mean orbital elements,

1 42354U          26082.99956282 +.00000000 +00000-0 +92781-3 0 00009
2 42354  99.1429 189.0323 0023254 190.7905 169.2773 14.17328696    09
Epoch (UTC): 23 March 2026 23:59:22
Eccentricity: 0.0023254
inclination: 99.1429°
perigee height: 818 km
apogee height: 851 km
right ascension of ascending node: 189.0323°
argument of perigee: 190.7905°
revolutions per day: 14.17328696
mean anomaly at epoch: 169.2773°

The dashed part of the orbit path shows where the satellite is in the earth's shadow,  

DLR